Weather History for GMMX - November, 2013

Change the Weather History Date:

Tuesday, November 26, 2013

  Actual Average Record
Temperature  
Mean Temperature 55 °F -  
Max Temperature 68 °F 65 °F 78 °F (1996)
Min Temperature 42 °F 44 °F 42 °F (1998)
Degree Days  
Heating Degree Days 10    
Growing Degree Days 5 (Base 50)    
Moisture  
Dew Point 45 °F    
Average Humidity 70    
Maximum Humidity 100    
Minimum Humidity 30    
Precipitation  
Precipitation 0.00 in 0.04 in - ()
Sea Level Pressure  
Sea Level Pressure 30.01 in    
Wind  
Wind Speed 4 mph ()    
Max Wind Speed 10 mph    
Max Gust Speed -    
Visibility 5.7 miles    
Events      
Averages and records for this station are not official NWS values.
T = Trace of Precipitation, MM = Missing Value Source: Averaged Metar Reports

Daily Weather History Graph

Daily Weather History Graph

Search for Another Location

Airport or City:

Trip Planner

Search our weather history database for the weather conditions in past years. The results will help you decide how hot, cold, wet, or windy it might be!

Date:

Astronomy

Nov. 26, 2013 Rise Set
Actual Time 7:09 AM WET 5:29 PM WET
Civil Twilight 6:43 AM WET 5:55 PM WET
Nautical Twilight 6:13 AM WET 6:25 PM WET
Astronomical Twilight 5:44 AM WET 6:54 PM WET
Moon 12:25 AM WET (11/26) 1:06 PM WET (11/26)
Length of Visible Light 11h 11m
Length of Day
10h 19m
Last Quarter, 43% of the Moon is Illuminated
Nov 26
Last Quarter
Dec 3
New
Dec 9
First Quarter
Dec 17
Full
Dec 25
Last Quarter

Hourly Weather History & Observations

Time (WET) Temp. Windchill Dew Point Humidity Pressure Visibility Wind Dir Wind Speed Gust Speed Precip Events Conditions
12:00 AM 51 °F - 46 °F 75% 30.01 in 6 mi SE 3.5 mph - -  
12:00 AM 51.8 °F - 46.4 °F 82% 30.01 in - SE 3.5 mph - N/A   Clear
12:30 AM 50.0 °F - 44.6 °F 82% 30.01 in - East 3.5 mph - N/A   Clear
1:00 AM 48.2 °F - 44.6 °F 87% 29.98 in - ENE 4.6 mph - N/A   Clear
1:30 AM 48.2 °F - 46.4 °F 93% 30.01 in - East 3.5 mph - N/A   Clear
2:00 AM 50.0 °F - 46.4 °F 87% 30.01 in - SSE 2.3 mph - N/A   Clear
2:30 AM 48.2 °F - 44.6 °F 87% 30.01 in 6.2 mi Variable 1.2 mph - N/A   Unknown
3:00 AM 47 °F - 44 °F 85% 30.03 in 6 mi Calm Calm - -  
3:00 AM 46.4 °F - 44.6 °F 93% 30.01 in 5.6 mi Calm Calm - N/A   Unknown
3:30 AM 46.4 °F - 44.6 °F 93% 30.01 in - Variable 2.3 mph - N/A   Clear
4:00 AM 46.4 °F - 44.6 °F 93% 30.01 in 5.6 mi ENE 2.3 mph - N/A   Unknown
4:30 AM 44.6 °F 43.1 °F 42.8 °F 93% 30.01 in 5.0 mi East 3.5 mph - N/A   Unknown
5:00 AM 46.4 °F 45.2 °F 44.6 °F 93% 29.98 in - ESE 3.5 mph - N/A   Clear
5:30 AM 46.4 °F - 44.6 °F 93% 30.01 in - SE 2.3 mph - N/A   Clear
6:00 AM 44 °F - 43 °F 94% 30.04 in 6 mi East 4.6 mph - -  
6:00 AM 44.6 °F 43.1 °F 42.8 °F 93% 30.01 in - East 3.5 mph - N/A   Clear
6:30 AM 44.6 °F 42.2 °F 42.8 °F 93% 30.01 in 5.0 mi East 4.6 mph - N/A   Unknown
7:00 AM 42.8 °F 40.1 °F 42.8 °F 100% 30.01 in 4.3 mi ENE 4.6 mph - N/A   Partly Cloudy
7:30 AM 42.8 °F 40.1 °F 42.8 °F 100% 30.01 in 4.3 mi East 4.6 mph - N/A   Partly Cloudy
8:00 AM 44.6 °F 43.1 °F 44.6 °F 100% 30.01 in 4.3 mi East 3.5 mph - N/A   Partly Cloudy
8:30 AM 48.2 °F - 46.4 °F 93% 30.01 in 4.3 mi East 4.6 mph - N/A   Partly Cloudy
9:00 AM 50 °F - 46 °F 83% 30.04 in 4 mi East 5.8 mph - -   Scattered Clouds
9:00 AM 50.0 °F - 46.4 °F 87% 30.04 in 4.3 mi East 4.6 mph - N/A   Partly Cloudy
9:30 AM 51.8 °F - 44.6 °F 76% 30.04 in 4.3 mi East 5.8 mph - N/A   Partly Cloudy
10:00 AM 55.4 °F - 46.4 °F 72% 30.04 in 4.3 mi East 6.9 mph - N/A   Partly Cloudy
10:30 AM 57.2 °F - 46.4 °F 67% 30.04 in 5.0 mi ENE 4.6 mph - N/A   Partly Cloudy
11:00 AM 59.0 °F - 48.2 °F 67% 30.04 in 5.0 mi East 3.5 mph - N/A   Partly Cloudy
11:45 AM 63 °F - 47 °F 45% 30.00 in 5 mi ENE 2.3 mph - -   Scattered Clouds
12:00 PM 62.6 °F - 46.4 °F 55% 30.04 in 5.0 mi Variable 2.3 mph - N/A   Scattered Clouds
12:30 PM 64.4 °F - 46.4 °F 52% 30.01 in 6.2 mi Variable 3.5 mph - N/A   Scattered Clouds
1:00 PM 66.2 °F - 46.4 °F 49% 30.01 in 6.2 mi West 3.5 mph - N/A   Scattered Clouds
1:30 PM 68.0 °F - 44.6 °F 43% 30.01 in 6.2 mi West 4.6 mph - N/A   Scattered Clouds
2:00 PM 68.0 °F - 44.6 °F 43% 30.01 in 6.2 mi WNW 6.9 mph - N/A   Scattered Clouds
2:30 PM 68.0 °F - 44.6 °F 43% 29.98 in 6.2 mi WNW 8.1 mph - N/A   Scattered Clouds
3:00 PM 69 °F - 45 °F 30% 29.94 in 6 mi WNW 10.4 mph - -   Scattered Clouds
3:00 PM 68.0 °F - 44.6 °F 43% 29.98 in 6.2 mi WNW 10.4 mph - N/A   Scattered Clouds
3:30 PM 68.0 °F - 44.6 °F 43% 29.98 in 6.2 mi NW 9.2 mph - N/A   Scattered Clouds
4:00 PM 68.0 °F - 44.6 °F 43% 29.98 in 6.2 mi WNW 10.4 mph - N/A   Scattered Clouds
4:30 PM 66.2 °F - 44.6 °F 46% 29.98 in 6.2 mi WNW 8.1 mph - N/A   Scattered Clouds
5:00 PM 66.2 °F - 44.6 °F 46% 30.01 in 6.2 mi WNW 8.1 mph - N/A   Scattered Clouds
5:30 PM 64.4 °F - 44.6 °F 49% 30.01 in 6.2 mi WNW 4.6 mph - N/A   Scattered Clouds
6:00 PM 63 °F - 45 °F 41% 29.98 in 6 mi SW 4.6 mph - -   Scattered Clouds
6:00 PM 62.6 °F - 46.4 °F 55% 30.01 in 6.2 mi SW 4.6 mph - N/A   Scattered Clouds
6:30 PM 62.6 °F - 46.4 °F 55% 30.01 in 6.2 mi SW 5.8 mph - N/A   Scattered Clouds
7:00 PM 60.8 °F - 46.4 °F 59% 30.01 in 6.2 mi West 3.5 mph - N/A   Scattered Clouds
7:30 PM 60.8 °F - 46.4 °F 59% 30.01 in 6.2 mi South 3.5 mph - N/A   Scattered Clouds
8:00 PM 60.8 °F - 48.2 °F 63% 30.04 in 6.2 mi SSW 3.5 mph - N/A   Scattered Clouds
8:30 PM 60.8 °F - 46.4 °F 59% 30.01 in 6.2 mi SSW 3.5 mph - N/A   Partly Cloudy
9:00 PM 59 °F - 47 °F 56% 30.01 in 6 mi Calm Calm - -   Scattered Clouds
9:00 PM 59.0 °F - 48.2 °F 67% 30.01 in 6.2 mi Calm Calm - N/A   Partly Cloudy
9:30 PM 57.2 °F - 46.4 °F 67% 30.01 in 6.2 mi Calm Calm - N/A   Partly Cloudy
10:00 PM 59.0 °F - 46.4 °F 63% 30.01 in 6.2 mi SSW 6.9 mph - N/A   Partly Cloudy
10:30 PM 57.2 °F - 46.4 °F 67% 30.01 in 6.2 mi SW 5.8 mph - N/A   Partly Cloudy
11:00 PM 55.4 °F - 46.4 °F 72% 30.04 in 6.2 mi SW 5.8 mph - N/A   Partly Cloudy
11:30 PM 57.2 °F - 46.4 °F 67% 30.01 in 6.2 mi SW 5.8 mph - N/A   Partly Cloudy